Regional Weather Roundup
Issued by NWS Goodland, KS

Home | Current Version | Previous Version | Text Only | Print | Product List | Glossary On
Versions: 1 2 3 4 5 6 7 8 9 10 11 12 13 14 15 16 17 18 19 20 21 22 23 24 25 26 27 28 29 30 31 32 33 34 35 36 37 38 39 40 41 42 43 44 45 46 47 48 49 50
000
ASUS43 KGLD 291308
RWRGLD

GOODLAND FORECAST AREA HOURLY WEATHER ROUNDUP
NATIONAL WEATHER SERVICE GOODLAND KS
700 AM MDT SAT AUG 29 2015

...OFFICIAL OBSERVATIONS...

CITY           SKY/WX    TMP DP  RH WIND       PRES   REMARKS
GOODLAND KS    CLEAR     58  54  86 W6        30.19R
HILL CITY KS   CLEAR     58  57  97 W7        30.13R
IMPERIAL NEB   CLEAR     60  55  83 W3        30.17R
MCCOOK NEB     CLEAR     57  55  93 W3        30.13R
AKRON CO       CLEAR     59  42  53 W12       30.23R
BURLINGTON CO  CLEAR     55  51  86 W8        30.23R
LIMON CO       CLEAR     47  45  93 N5        30.30R
$$

...UNOFFICIAL OBSERVATIONS...

CITY           SKY/WX    TMP DP  RH WIND       PRES   REMARKS
GOVE KS          N/A     55  32  41 MISG        N/A
LENORA KS        N/A     59  32  36 MISG        N/A
SHARON SPRINGS   N/A     54  52  94 W5          N/A
YUMA CO          N/A     52  47  84 CALM        N/A
$$


USA.gov is the U.S. government's official web portal to all federal, state and local government web resources and services.